When you browse on this site, cookies collect data to enhance your experience and personalize the content and advertising you see.
Visit our Privacy Policy to learn more. By continuing to use the site, you agree to this use of cookies and data.
  • In Lithuania
  • List of Countries
  • For 7 days
  • Water Temperature
  • Weather Map
  • Weather Widgets
  • user-avatar
    Login

    Hourly Weather Blansko

    Today, 14 December, Saturday

    Time Temperature Precipitation Wind Pressure Humidity
    00:00 -2°C° 0 mm 3 mps 714 mmHg 93%
    01:00 -2°C° 0 mm 3 mps 715 mmHg 94%
    02:00 -1°C° 0 mm 3 mps 715 mmHg 94%
    03:00 -1°C° 0 mm 3 mps 715 mmHg 94%
    04:00 -1°C° 0 mm 3 mps 715 mmHg 94%
    05:00 -1°C° 0 mm 3 mps 715 mmHg 94%
    06:00 0°C° 0 mm 3 mps 715 mmHg 94%
    07:00 0°C° 0 mm 3 mps 716 mmHg 94%
    08:00 0°C° 0 mm 3 mps 716 mmHg 93%
    09:00 0°C° 0 mm 3 mps 716 mmHg 91%
    10:00 +1°C° 0 mm 3 mps 716 mmHg 90%
    11:00 0°C° 0.3 mm 4 mps 717 mmHg 89%
    12:00 0°C° 0.3 mm 5 mps 717 mmHg 87%
    13:00 +1°C° 0.3 mm 6 mps 717 mmHg 86%
    14:00 +1°C° 0.4 mm 6 mps 717 mmHg 85%
    15:00 +2°C° 0.4 mm 6 mps 718 mmHg 85%
    16:00 +2°C° 0.4 mm 5 mps 719 mmHg 85%
    17:00 +2°C° 0 mm 5 mps 720 mmHg 85%
    18:00 +1°C° 0 mm 5 mps 721 mmHg 85%
    19:00 +1°C° 0 mm 4 mps 722 mmHg 84%
    20:00 0°C° 0 mm 4 mps 723 mmHg 84%
    21:00 +1°C° 0 mm 3 mps 724 mmHg 84%
    22:00 +1°C° 0 mm 3 mps 724 mmHg 84%
    23:00 0°C° 0 mm 3 mps 725 mmHg 85%

    Tomorrow, 15 December, Sunday

    Time Temperature Precipitation Wind Pressure Humidity
    00:00 0°C° 0 mm 3 mps 725 mmHg 87%
    01:00 0°C° 0 mm 3 mps 725 mmHg 88%
    02:00 0°C° 0 mm 3 mps 726 mmHg 89%
    03:00 0°C° 0 mm 3 mps 726 mmHg 90%
    04:00 0°C° 0 mm 3 mps 726 mmHg 91%
    05:00 +2°C° 0 mm 2 mps 726 mmHg 91%
    06:00 +2°C° 0 mm 2 mps 726 mmHg 90%
    07:00 +2°C° 0 mm 2 mps 726 mmHg 90%
    08:00 +3°C° 0.1 mm 2 mps 726 mmHg 86%
    09:00 +3°C° 0.1 mm 3 mps 726 mmHg 82%
    10:00 +3°C° 0.1 mm 3 mps 726 mmHg 78%
    11:00 +4°C° 0 mm 4 mps 726 mmHg 76%
    12:00 +4°C° 0 mm 4 mps 726 mmHg 74%
    13:00 +4°C° 0 mm 4 mps 726 mmHg 72%
    14:00 +3°C° 0 mm 4 mps 727 mmHg 77%
    15:00 +3°C° 0 mm 3 mps 727 mmHg 82%
    16:00 +2°C° 0 mm 3 mps 728 mmHg 86%
    17:00 +2°C° 0 mm 3 mps 728 mmHg 88%
    18:00 +2°C° 0 mm 2 mps 729 mmHg 90%
    19:00 +2°C° 0 mm 2 mps 730 mmHg 92%
    20:00 +2°C° 0 mm 2 mps 730 mmHg 92%
    21:00 +2°C° 0 mm 2 mps 730 mmHg 92%
    22:00 +3°C° 0 mm 2 mps 731 mmHg 91%
    23:00 +2°C° 0 mm 2 mps 731 mmHg 92%

    Day after tomorrow, 16 December, Monday

    Time Temperature Precipitation Wind Pressure Humidity
    00:00 +2°C° 0 mm 2 mps 731 mmHg 93%
    01:00 +1°C° 0 mm 2 mps 731 mmHg 93%
    02:00 +2°C° 0 mm 1 mps 731 mmHg 94%
    03:00 +2°C° 0 mm 1 mps 731 mmHg 94%
    04:00 +2°C° 0 mm 1 mps 731 mmHg 94%
    05:00 +2°C° 0 mm 1 mps 731 mmHg 94%
    06:00 +1°C° 0 mm 2 mps 731 mmHg 95%
    07:00 +1°C° 0 mm 2 mps 731 mmHg 95%
    08:00 +2°C° 0 mm 2 mps 731 mmHg 94%
    09:00 +3°C° 0 mm 2 mps 731 mmHg 94%
    10:00 +3°C° 0 mm 2 mps 731 mmHg 93%
    11:00 +4°C° 0 mm 2 mps 731 mmHg 93%
    12:00 +3°C° 0 mm 3 mps 730 mmHg 92%
    13:00 +4°C° 0 mm 3 mps 730 mmHg 92%
    14:00 +5°C° 0 mm 2 mps 730 mmHg 93%
    15:00 +5°C° 0 mm 2 mps 729 mmHg 94%
    16:00 +5°C° 0 mm 2 mps 729 mmHg 95%
    17:00 +5°C° 0 mm 2 mps 729 mmHg 95%
    18:00 +5°C° 0 mm 2 mps 729 mmHg 94%
    19:00 +5°C° 0 mm 2 mps 729 mmHg 94%
    20:00 +4°C° 0 mm 3 mps 729 mmHg 94%
    21:00 +4°C° 0 mm 3 mps 729 mmHg 94%
    22:00 +5°C° 0 mm 4 mps 728 mmHg 94%
    23:00 +5°C° 0 mm 3 mps 728 mmHg 94%

    17 December, Tuesday

    Time Temperature Precipitation Wind Pressure Humidity
    00:00 +5°C° 0 mm 3 mps 728 mmHg 95%
    01:00 +5°C° 0 mm 3 mps 728 mmHg 95%
    02:00 +5°C° 0 mm 3 mps 728 mmHg 95%
    03:00 +5°C° 0 mm 3 mps 728 mmHg 95%
    04:00 +5°C° 0 mm 3 mps 727 mmHg 96%
    05:00 +5°C° 0 mm 3 mps 727 mmHg 96%
    06:00 +5°C° 0 mm 3 mps 727 mmHg 96%
    07:00 +5°C° 0 mm 3 mps 727 mmHg 96%
    08:00 +5°C° 0 mm 3 mps 727 mmHg 95%
    09:00 +5°C° 0 mm 3 mps 727 mmHg 94%
    10:00 +7°C° 0 mm 3 mps 728 mmHg 93%
    11:00 +7°C° 0 mm 2 mps 728 mmHg 91%
    12:00 +8°C° 0 mm 2 mps 727 mmHg 89%
    13:00 +9°C° 0 mm 2 mps 727 mmHg 87%
    14:00 +9°C° 0 mm 1 mps 727 mmHg 89%
    15:00 +8°C° 0 mm 1 mps 727 mmHg 90%
    16:00 +7°C° 0 mm 1 mps 727 mmHg 92%
    17:00 +7°C° 0 mm 1 mps 728 mmHg 92%
    18:00 +6°C° 0 mm 1 mps 728 mmHg 91%
    19:00 +6°C° 0 mm 1 mps 728 mmHg 91%
    20:00 +6°C° 0 mm 1 mps 728 mmHg 91%
    21:00 +6°C° 0 mm 1 mps 728 mmHg 92%
    22:00 +6°C° 0 mm 1 mps 729 mmHg 92%
    23:00 +6°C° 0 mm 1 mps 729 mmHg 94%

    18 December, Wednesday

    Time Temperature Precipitation Wind Pressure Humidity
    00:00 +6°C° 0 mm 1 mps 729 mmHg 95%
    01:00 +6°C° 0 mm 1 mps 729 mmHg 96%
    02:00 +6°C° 0 mm 1 mps 729 mmHg 96%
    03:00 +6°C° 0 mm 1 mps 729 mmHg 97%
    04:00 +7°C° 0 mm 1 mps 729 mmHg 97%
    05:00 +7°C° 0 mm 1 mps 729 mmHg 97%
    06:00 +7°C° 0 mm 1 mps 729 mmHg 97%
    07:00 +7°C° 0 mm 1 mps 729 mmHg 97%
    08:00 +7°C° 0 mm 1 mps 730 mmHg 96%
    09:00 +7°C° 0 mm 1 mps 730 mmHg 96%
    10:00 +8°C° 0 mm 1 mps 730 mmHg 95%
    11:00 +7°C° 0 mm 2 mps 730 mmHg 93%
    12:00 +8°C° 0 mm 2 mps 730 mmHg 91%
    13:00 +8°C° 0 mm 2 mps 730 mmHg 89%
    14:00 +8°C° 0 mm 2 mps 730 mmHg 91%
    15:00 +8°C° 0 mm 1 mps 730 mmHg 93%
    16:00 +8°C° 0 mm 1 mps 730 mmHg 95%
    17:00 +8°C° 0 mm 1 mps 730 mmHg 95%
    18:00 +8°C° 0 mm 1 mps 730 mmHg 95%
    19:00 +8°C° 0 mm 1 mps 730 mmHg 96%
    20:00 +8°C° 0 mm 1 mps 730 mmHg 96%
    21:00 +7°C° 0 mm 2 mps 730 mmHg 97%
    22:00 +7°C° 0 mm 2 mps 730 mmHg 97%
    23:00 +7°C° 0 mm 2 mps 730 mmHg 97%

    19 December, Thursday

    Time Temperature Precipitation Wind Pressure Humidity
    00:00 +7°C° 0 mm 2 mps 730 mmHg 97%
    01:00 +7°C° 0 mm 2 mps 729 mmHg 97%
    02:00 +7°C° 0 mm 2 mps 729 mmHg 97%
    03:00 +7°C° 0 mm 2 mps 729 mmHg 97%
    04:00 +7°C° 0 mm 2 mps 729 mmHg 97%
    05:00 +7°C° 0 mm 2 mps 728 mmHg 97%
    06:00 +7°C° 0 mm 2 mps 728 mmHg 96%
    07:00 +7°C° 0 mm 2 mps 728 mmHg 96%
    08:00 +7°C° 0 mm 2 mps 728 mmHg 95%
    09:00 +7°C° 0 mm 2 mps 728 mmHg 93%
    10:00 +7°C° 0 mm 2 mps 728 mmHg 92%
    11:00 +8°C° 0 mm 3 mps 728 mmHg 89%
    12:00 +8°C° 0 mm 3 mps 727 mmHg 86%
    13:00 +8°C° 0 mm 4 mps 727 mmHg 83%
    14:00 +8°C° 0 mm 4 mps 726 mmHg 85%
    15:00 +7°C° 0 mm 4 mps 726 mmHg 86%
    16:00 +7°C° 0 mm 4 mps 725 mmHg 87%
    17:00 +6°C° 0 mm 4 mps 725 mmHg 88%
    18:00 +6°C° 0 mm 4 mps 725 mmHg 89%
    19:00 +5°C° 0 mm 4 mps 724 mmHg 90%
    20:00 +5°C° 0 mm 4 mps 724 mmHg 90%
    21:00 +6°C° 0 mm 4 mps 724 mmHg 91%
    22:00 +6°C° 0 mm 5 mps 724 mmHg 91%
    23:00 +6°C° 0 mm 4 mps 723 mmHg 91%
    Show more